Torna al catalogo

DELTA 1 DEB

AttivoLEO
NORAD 7061·DEBRIS·🇺🇸 United States

Lanciato Nov 6, 1973 da Vandenberg Space Force Base

Loading…

Prossimi Passaggi (prossime 24 ore)

TLE

AggiornatoSource: Space-Track

Epoca: Sep 14, 2026, 04:17 UTC

1 07061U 73086BD  26257.17874426  .00000026  00000-0  43875-3 0  9997
2 07061 102.4530 153.8491 0138155 178.2039 338.3704 12.56191745418928

Traccia DELTA 1 DEB in tempo reale con AllMySat

Download on the App Store